Find Starlink 32724

NORAD ID: 62441 Int'l Des: 2024-251 Owner: SPXS Country: US Constellation: starlink operational
LEOCIRCULAR

現在のビュー

3D地球を読み込み中...

About Starlink 32724

Starlink 32724 (NORAD 62441) is a starlink constellation satellite (v2 mini) launched Dec 29, 2024 by SPXS of US. It operates in LEO, CIRCULAR orbit with a mass of 730.00 kg.

次回通過

Passes for default location (London). Set your location on the main map for personalized predictions.

高度履歴

Loading altitude history...

軌道要素

1 62441U 24251K 26262.95617044 .00021534 00000-0 64652-3 0 9996
2 62441 53.1579 149.9696 0001366 83.7356 276.3802 15.34405066 97571
Epoch: Sep 19, 2026 • Age: 24 hours

現在のステータス

高度 463.5 km
遠地点 / 近地点 N/A
速度 7.64 km/s
衛星直下点 -0.19°S, 22.14°W
打ち上げ日 Dec 29, 2024
運用期間 1.7 years
タイプ internet

技術仕様

分類 Payload
質量 730.00 kg
乾燥質量 700.00 kg
長さ 0.30 m
スパン 29.00 m
形状 ? Box + pan
製造者 SPXS
バスタイプ Starlink V2M
フェーズステータス In Orbit
所有者/国 SPXS/US

Most Searched